Wind_Speed
40 41 43 45 45 46 47 47 49 53 55 56 52 50 50 44 42 41 45 47 42 35 33 35 35 44 47 48 46 41 38 34 29 29 26 22 20 17 15 14 13 11 9 6 4
41 44 45 46 46 48 49 49 50 53 55 57 54 53 50 42 51 51 45 45 43 40 38 39 36 41 40 42 43 43 39 34 31 33 33 27 23 19 20 16 16 14 11 9 6
44 45 47 49 49 49 50 51 52 54 57 58 56 51 47 53 50 51 46 49 48 46 42 39 34 40 47 47 50 43 43 40 40 38 32 29 26 24 22 21 19 17 14 13 9
47 49 49 51 52 52 53 54 55 56 58 59 60 58 38 55 56 50 46 49 54 54 45 40 31 36 42 48 53 50 47 43 36 33 34 30 29 27 26 24 21 19 18 15 13
52 52 53 53 54 55 56 57 58 60 59 62 64 65 59 45 46 50 50 44 45 52 45 40 42 43 44 48 50 53 41 42 41 37 38 36 30 31 28 23 23 22 21 18 16
55 55 56 55 56 57 58 59 61 63 63 64 67 71 66 63 60 51 46 48 44 48 47 43 44 42 42 41 47 39 36 40 39 39 37 34 34 33 28 28 25 27 24 21 19
58 59 58 58 57 57 59 61 62 64 67 66 71 75 71 64 54 57 53 52 48 45 45 40 42 41 41 38 42 40 40 42 46 42 42 40 37 33 32 30 29 29 26 24 23
56 57 58 59 59 58 58 60 61 64 68 69 74 76 76 75 66 62 51 51 54 47 47 48 48 44 40 38 43 46 47 49 41 41 42 38 35 38 32 32 31 31 30 27 26
36 38 40 44 47 51 51 54 58 61 65 62 72 79 80 74 61 48 50 47 44 49 49 47 46 46 48 46 46 43 50 48 48 44 46 42 40 44 37 37 34 34 33 30 28
27 27 27 28 30 33 39 44 46 51 58 46 62 76 79 79 71 51 59 57 55 56 48 51 51 46 48 46 46 48 48 46 54 53 49 47 47 45 42 41 36 36 36 32 29
23 24 24 25 24 25 30 31 36 42 47 51 58 70 70 82 80 68 53 61 61 58 61 57 52 51 44 38 40 40 44 44 50 57 49 50 50 47 43 39 38 37 36 35 31
23 23 22 22 24 26 28 28 28 36 43 52 41 59 68 67 79 71 71 48 53 53 56 59 61 54 52 46 37 39 45 48 53 54 52 51 47 43 39 41 42 40 38 36 33
23 23 17 18 26 27 28 28 23 34 40 45 50 45 47 54 71 80 73 56 52 49 45 55 54 61 56 54 52 45 40 36 43 52 49 50 40 39 40 44 43 41 41 40 34
21 17 14 14 21 27 27 27 26 33 34 36 38 47 45 34 51 75 80 77 60 51 44 35 42 46 48 54 58 54 55 50 43 38 41 38 41 45 53 50 50 49 43 38 39
21 17 14 14 17 26 27 28 29 44 29 35 35 34 41 45 47 63 77 82 71 61 56 48 36 44 47 48 55 59 58 53 52 48 46 41 42 33 28 38 40 35 41 39 39
22 18 15 12 14 24 26 26 29 41 36 19 36 37 31 35 36 45 56 62 62 71 69 61 53 43 49 52 55 58 58 55 53 52 52 46 42 41 36 35 36 39 41 43 44
23 19 16 14 14 21 25 25 27 39 45 23 31 32 40 41 38 38 39 39 50 61 71 65 56 48 43 49 54 51 50 42 46 50 54 51 51 46 40 39 41 44 42 45 47
21 17 15 14 14 15 25 24 31 29 39 42 23 36 36 32 27 25 30 39 36 39 42 40 41 42 48 47 46 44 44 42 43 46 47 45 44 47 44 43 43 42 44 43 45
19 16 13 13 13 16 18 29 36 13 37 40 31 30 29 36 36 32 25 24 29 32 34 41 42 40 43 48 48 45 44 40 39 41 43 44 46 44 42 42 45 45 44 45 45
18 15 13 10 10 17 17 35 30 12 23 39 46 35 18 32 36 35 32 35 30 25 28 35 39 42 43 43 47 47 46 45 42 43 43 43 41 40 41 43 44 46 46 47 47
18 13 10 8 10 18 17 27 35 14 23 31 44 42 26 23 40 41 41 42 42 36 28 31 32 37 39 42 43 45 44 43 42 44 42 42 43 45 46 47 47 45 45 45 47
16 13 10 6 8 15 13 19 33 24 27 30 39 45 35 26 36 44 45 45 37 42 34 33 33 34 34 35 36 40 39 38 40 41 40 40 43 43 44 45 47 48 46 45 43
14 11 10 6 6 13 12 11 26 25 16 16 29 30 27 33 30 38 38 39 35 34 34 35 36 36 34 33 31 33 35 35 36 37 35 37 39 39 40 39 41 44 44 43 44
11 9 7 7 6 6 11 11 10 20 22 24 24 22 18 14 22 31 34 38 39 35 32 30 32 34 34 30 28 29 29 28 29 29 30 28 30 33 36 39 37 36 39 43 41
9 7 6 4 3 4 5 5 5 10 10 19 20 19 20 21 14 17 25 30 33 37 33 33 30 30 28 28 29 29 29 29 29 28 29 26 30 30 33 32 37 40 40 44 49
8 6 4 4 4 3 3 4 5 4 8 12 13 25 21 16 22 26 23 23 25 24 30 34 34 31 30 29 29 29 29 27 25 26 26 27 25 31 36 38 42 45 50 53 56
11 9 8 7 7 7 6 6 5 3 4 10 13 13 25 31 27 20 15 21 26 25 23 22 24 33 34 32 31 31 31 30 30 30 31 33 32 37 38 40 44 49 53 55 56
Wind_Direction
249 246 245 246 243 241 238 235 231 231 233 234 231 235 236 235 228 225 220 224 229 230 232 240 240 225 219 207 213 218 216 217 220 225 216 217 221 223 230 221 234 243 242 252 271
252 251 249 248 248 245 241 236 231 230 231 234 231 231 235 235 220 220 220 221 227 228 225 228 219 220 230 222 213 217 218 215 217 222 223 215 221 222 230 230 231 235 243 257 263
254 252 250 248 247 248 245 238 232 229 230 229 229 233 230 228 233 223 224 216 221 227 228 231 223 234 237 237 215 215 212 215 218 219 223 225 225 226 228 230 232 232 240 250 257
259 256 254 250 248 247 244 241 234 230 227 227 226 222 210 219 221 224 228 218 223 224 228 227 234 230 215 218 223 220 219 213 220 222 223 223 228 229 228 227 234 234 237 247 253
264 260 257 253 249 247 245 240 235 230 227 224 222 218 223 204 211 217 215 217 219 219 226 220 223 240 221 227 225 227 230 205 216 220 223 221 226 226 228 230 233 236 240 245 253
263 262 259 256 252 248 244 239 235 230 227 223 221 222 218 223 228 215 209 211 218 226 227 224 227 234 240 216 218 228 222 213 215 216 222 227 226 228 233 237 239 242 245 250 254
265 262 259 256 253 247 243 238 233 229 226 222 221 223 216 219 218 232 206 206 218 217 227 213 206 210 229 217 225 229 226 223 215 216 221 224 224 227 233 237 239 243 245 249 252
263 261 259 256 252 248 242 238 232 226 223 223 220 222 217 216 221 235 221 214 211 208 211 208 211 213 219 218 229 232 226 219 224 217 223 226 229 237 238 237 237 241 245 245 249
250 251 250 250 247 241 234 231 228 223 219 218 222 219 218 219 218 218 217 213 220 210 214 213 216 215 212 224 233 222 220 222 222 226 230 230 227 238 236 235 236 243 246 245 248
235 240 234 232 231 230 222 219 222 219 215 207 219 220 215 210 209 214 217 232 233 228 226 219 220 216 219 221 230 230 227 229 233 223 227 229 232 239 237 233 235 241 247 247 249
229 220 222 220 216 208 205 206 208 208 208 203 211 215 219 216 219 214 216 220 224 227 234 230 225 220 207 219 223 231 229 232 236 224 221 228 233 236 231 235 240 241 246 248 248
220 214 214 200 202 196 196 196 206 209 205 204 206 216 220 221 215 215 218 201 204 208 217 225 227 224 228 230 220 222 227 230 230 225 229 227 229 229 232 236 239 244 247 251 254
208 208 192 195 193 191 190 189 194 200 202 203 208 214 222 226 217 212 208 209 199 196 202 217 221 223 228 229 227 217 220 222 227 228 230 231 225 236 244 241 241 245 251 254 254
208 178 195 201 193 187 189 187 193 191 189 194 213 220 218 227 219 218 221 212 209 193 192 203 219 224 228 228 229 235 232 231 230 225 225 224 227 236 247 248 246 250 251 253 255
192 185 193 195 191 186 186 184 189 176 193 196 193 207 215 227 230 220 220 218 212 214 204 209 219 222 222 227 228 232 235 235 238 242 238 241 242 238 244 244 242 253 249 250 254
178 184 184 185 183 178 181 182 188 209 198 212 188 196 195 212 220 223 231 230 231 220 216 227 232 230 221 223 225 229 235 240 243 243 245 248 251 245 249 248 252 249 253 260 263
177 177 176 177 187 182 184 189 192 208 204 198 205 200 176 175 189 202 211 214 230 233 229 235 239 237 226 220 226 225 229 231 237 240 244 245 251 257 250 246 254 259 256 258 261
176 170 168 172 186 186 182 190 171 198 211 210 207 222 218 212 206 195 201 215 217 223 223 229 226 239 235 225 227 222 221 222 229 240 243 244 244 246 249 255 251 249 252 254 258
171 169 169 174 184 183 189 184 179 157 205 207 197 202 217 231 230 230 211 208 200 221 225 229 231 229 226 226 226 228 224 222 226 233 237 242 247 246 247 248 252 257 261 263 262
173 167 168 176 184 190 198 194 196 182 194 201 209 206 202 215 220 212 211 211 210 217 217 217 221 225 226 225 227 230 232 234 234 234 238 241 244 245 248 252 251 253 257 261 265
168 165 164 166 183 188 205 196 208 154 154 202 202 209 226 214 210 204 206 207 218 226 212 217 216 223 224 225 228 229 232 238 240 243 244 246 250 255 256 256 261 264 265 267 267
160 160 153 132 162 186 201 195 188 159 143 184 201 205 218 216 212 211 211 212 214 207 208 215 221 220 226 228 225 226 224 228 236 240 247 251 255 259 262 265 269 270 272 273 273
157 153 142 129 116 172 198 196 210 215 195 141 173 188 182 196 194 213 217 205 206 207 211 216 216 218 220 217 223 228 230 231 234 240 243 247 252 254 259 264 266 269 273 278 278
157 153 138 133 100 127 177 194 195 231 217 155 162 159 186 169 179 191 207 213 219 217 218 210 211 214 220 225 226 227 230 233 236 240 241 243 248 255 259 258 263 270 268 271 282
176 171 165 157 140 117 147 160 179 202 234 246 211 181 164 177 200 192 186 188 188 200 213 214 216 218 218 218 220 224 229 234 240 241 242 241 244 254 264 266 263 267 279 285 284
159 160 187 182 188 154 172 194 196 199 206 236 249 255 239 198 173 172 178 182 194 185 198 203 210 221 222 222 219 220 223 231 236 245 247 248 251 261 262 272 283 284 284 285 286
109 113 128 137 151 160 180 212 227 212 216 222 238 244 249 255 248 220 191 190 206 212 214 224 218 220 222 225 229 230 233 236 242 251 255 260 265 268 276 279 280 281 283 284 286
Height
5668 5671 5673 5676 5681 5685 5691 5698 5706 5711 5716 5723 5731 5738 5744 5748 5754 5760 5765 5773 5779 5786 5790 5797 5798 5804 5809 5815 5822 5828 5834 5839 5844 5845 5848 5852 5854 5856 5859 5860 5863 5864 5866 5868 5868
5658 5660 5663 5666 5670 5675 5680 5688 5696 5702 5707 5714 5721 5728 5734 5740 5746 5752 5760 5766 5772 5780 5787 5791 5795 5800 5806 5811 5817 5822 5829 5836 5841 5841 5842 5847 5851 5854 5857 5858 5861 5862 5865 5866 5867
5647 5649 5652 5655 5659 5663 5670 5676 5684 5692 5698 5705 5713 5720 5727 5733 5740 5745 5752 5758 5764 5773 5779 5785 5792 5797 5801 5806 5813 5816 5823 5828 5832 5836 5843 5845 5848 5851 5853 5856 5858 5859 5862 5864 5865
5634 5636 5639 5642 5646 5651 5657 5664 5672 5680 5688 5695 5704 5713 5717 5724 5733 5738 5743 5749 5755 5765 5772 5778 5784 5789 5796 5800 5805 5811 5817 5823 5832 5836 5838 5841 5844 5847 5849 5852 5855 5858 5859 5861 5863
5619 5622 5625 5629 5632 5637 5643 5652 5659 5667 5676 5685 5694 5701 5710 5715 5726 5734 5739 5743 5748 5757 5764 5771 5778 5784 5789 5794 5801 5804 5811 5818 5826 5831 5832 5836 5841 5842 5845 5849 5852 5856 5857 5859 5861
5603 5606 5609 5613 5618 5623 5630 5638 5647 5655 5664 5675 5683 5689 5701 5710 5720 5725 5732 5739 5744 5750 5757 5764 5771 5777 5783 5789 5793 5800 5808 5814 5821 5824 5828 5833 5836 5839 5843 5846 5848 5852 5854 5856 5858
5584 5588 5592 5596 5602 5609 5615 5623 5632 5641 5651 5661 5670 5678 5689 5702 5709 5716 5725 5730 5737 5745 5750 5757 5763 5769 5777 5781 5788 5795 5802 5807 5813 5819 5823 5827 5832 5836 5838 5842 5844 5847 5850 5853 5855
5566 5570 5574 5579 5585 5592 5599 5607 5616 5627 5638 5648 5656 5667 5679 5691 5700 5709 5717 5722 5728 5736 5745 5750 5758 5763 5770 5776 5782 5788 5795 5802 5807 5812 5818 5822 5829 5829 5836 5837 5840 5842 5845 5848 5851
5554 5558 5561 5565 5570 5577 5583 5592 5602 5613 5625 5637 5644 5655 5669 5684 5696 5702 5709 5715 5721 5729 5737 5743 5751 5757 5764 5770 5776 5780 5787 5792 5801 5805 5812 5816 5821 5820 5828 5831 5834 5837 5840 5843 5847
5546 5550 5553 5556 5561 5566 5574 5582 5591 5602 5614 5626 5633 5644 5662 5675 5681 5695 5701 5707 5715 5722 5728 5737 5744 5751 5758 5763 5768 5773 5779 5786 5789 5797 5803 5808 5813 5817 5823 5825 5828 5831 5834 5837 5841
5541 5545 5549 5553 5559 5564 5571 5579 5587 5595 5605 5614 5625 5637 5647 5662 5669 5684 5695 5699 5706 5713 5720 5729 5737 5747 5753 5756 5762 5765 5771 5776 5782 5788 5796 5800 5805 5811 5817 5820 5822 5825 5829 5831 5835
5537 5542 5546 5550 5555 5561 5568 5577 5583 5594 5600 5610 5622 5628 5635 5643 5660 5676 5688 5693 5697 5704 5710 5721 5730 5740 5742 5747 5755 5759 5764 5770 5778 5783 5789 5793 5800 5804 5811 5815 5818 5820 5823 5826 5831
5535 5539 5543 5548 5553 5560 5566 5574 5581 5587 5596 5607 5616 5621 5630 5637 5649 5664 5673 5684 5690 5695 5705 5712 5720 5727 5733 5741 5748 5753 5760 5765 5772 5776 5781 5788 5795 5800 5806 5811 5813 5815 5818 5821 5826
5533 5537 5543 5547 5553 5558 5565 5572 5578 5584 5594 5603 5611 5618 5627 5632 5640 5652 5660 5674 5684 5690 5697 5705 5711 5719 5725 5732 5740 5745 5752 5757 5764 5770 5776 5780 5787 5793 5797 5803 5806 5810 5815 5816 5819
5532 5538 5543 5547 5550 5557 5564 5570 5575 5581 5589 5598 5605 5611 5622 5629 5638 5643 5652 5662 5675 5680 5690 5698 5706 5713 5719 5724 5730 5737 5743 5748 5753 5761 5768 5776 5783 5791 5790 5795 5802 5806 5804 5807 5810
5532 5538 5543 5547 5550 5555 5561 5567 5574 5579 5584 5594 5598 5609 5617 5623 5629 5637 5646 5656 5663 5671 5682 5692 5700 5706 5712 5717 5723 5728 5734 5738 5747 5753 5760 5769 5775 5783 5785 5790 5793 5796 5798 5800 5802
5533 5539 5544 5547 5550 5554 5559 5564 5571 5574 5582 5588 5597 5605 5612 5617 5624 5633 5644 5651 5659 5667 5676 5683 5691 5700 5707 5710 5715 5721 5728 5732 5738 5744 5755 5760 5766 5777 5778 5780 5782 5786 5790 5790 5791
5535 5540 5544 5547 5550 5553 5558 5564 5570 5573 5579 5587 5595 5599 5606 5613 5620 5629 5635 5645 5653 5661 5669 5675 5686 5693 5700 5704 5713 5716 5721 5726 5732 5740 5747 5751 5760 5767 5769 5769 5771 5774 5778 5778 5781
5537 5541 5545 5548 5551 5553 5557 5562 5568 5571 5578 5585 5591 5597 5603 5611 5619 5626 5633 5639 5646 5654 5663 5670 5677 5685 5690 5695 5702 5707 5713 5719 5725 5731 5736 5742 5750 5755 5757 5759 5760 5762 5764 5766 5769
5539 5543 5546 5549 5552 5554 5558 5561 5565 5572 5577 5584 5589 5597 5604 5609 5615 5622 5628 5635 5640 5648 5655 5660 5669 5674 5682 5689 5694 5701 5707 5713 5718 5724 5729 5735 5742 5745 5748 5749 5751 5754 5757 5756 5757
5542 5546 5549 5550 5552 5556 5558 5563 5564 5571 5575 5583 5590 5597 5602 5607 5612 5616 5624 5631 5639 5646 5650 5656 5663 5669 5674 5681 5689 5694 5698 5705 5712 5716 5721 5728 5733 5735 5736 5737 5737 5740 5742 5744 5746
5544 5548 5551 5553 5555 5556 5558 5562 5567 5571 5574 5582 5588 5596 5602 5604 5607 5612 5618 5626 5634 5641 5646 5651 5658 5662 5670 5675 5680 5684 5690 5696 5702 5710 5715 5720 5722 5726 5725 5725 5728 5728 5730 5732 5731
5548 5551 5553 5555 5557 5558 5561 5564 5567 5570 5572 5580 5586 5595 5597 5602 5605 5609 5615 5622 5630 5636 5641 5645 5649 5656 5663 5669 5673 5679 5685 5691 5696 5702 5710 5712 5717 5716 5717 5717 5719 5718 5719 5718 5718
5552 5555 5557 5558 5559 5561 5563 5567 5571 5572 5574 5579 5583 5586 5593 5597 5602 5607 5613 5619 5625 5631 5636 5641 5645 5653 5660 5666 5670 5674 5681 5686 5690 5696 5702 5707 5706 5707 5706 5709 5713 5712 5712 5711 5712
5555 5557 5559 5561 5563 5564 5565 5567 5570 5575 5576 5578 5582 5586 5591 5595 5600 5605 5611 5615 5621 5626 5632 5639 5642 5648 5654 5660 5665 5670 5676 5680 5684 5688 5693 5699 5699 5701 5700 5704 5702 5704 5705 5703 5702
5557 5559 5560 5562 5564 5566 5567 5568 5571 5573 5577 5578 5583 5585 5589 5592 5598 5603 5607 5614 5618 5623 5628 5632 5638 5644 5649 5655 5661 5665 5672 5675 5678 5683 5688 5690 5695 5692 5693 5696 5697 5695 5693 5692 5690
5560 5561 5563 5564 5566 5568 5569 5570 5571 5574 5577 5579 5581 5584 5588 5592 5596 5600 5605 5611 5616 5621 5626 5630 5634 5640 5646 5651 5655 5662 5666 5669 5671 5677 5681 5683 5685 5684 5688 5688 5686 5685 5684 5682 5678